EW2887 Weather Reports


Display with metric or nautical units.
time (UTC)temp
F
wind
direction
speed
MPH
gust
MPH
rain 1hr
in
rain 24hr
in
rain mn
in
humidity
%
barometer
mb
20260902163022 87 196 13.0 24.0 0.00 0.00 0.00 42 1010.2
20260902161518 85 215 17.0 25.0 0.00 0.00 0.00 43 1010.3
20260902160017 85 238 17.0 23.0 0.00 0.00 0.00 43 1010.2
20260902154513 84 232 16.0 23.0 0.00 0.00 0.00 45 1010.2
20260902153011 83 225 17.0 23.0 0.00 0.00 0.00 45 1010.2
20260902151506 81 213 17.0 20.0 0.00 0.00 0.00 47 1010.3
20260902150006 80 234 11.0 20.0 0.00 0.00 0.00 48 1010.4
20260902144600 79 217 11.0 17.0 0.00 0.00 0.00 48 1010.3
20260902143057 77 203 9.0 18.0 0.00 0.00 0.00 50 1010.3
20260902141554 75 215 9.0 17.0 0.00 0.00 0.00 53 1010.3
20260902140054 74 185 11.0 19.0 0.00 0.00 0.00 53 1010.2
20260902134551 73 211 13.0 19.0 0.00 0.00 0.00 55 1010.1
20260902133050 72 190 12.0 17.0 0.00 0.00 0.00 56 1010.0
20260902131546 72 201 12.0 21.0 0.00 0.00 0.00 56 1009.7
20260902130044 72 195 15.0 18.0 0.00 0.00 0.00 56 1009.5
20260902124543 72 193 14.0 19.0 0.00 0.00 0.00 56 1009.4
20260902123039 72 213 14.0 19.0 0.00 0.00 0.00 55 1009.3
20260902121539 73 209 15.0 18.0 0.00 0.00 0.00 54 1009.2
20260902120036 72 200 14.0 17.0 0.00 0.00 0.00 54 1009.1
20260902114535 72 207 11.0 17.0 0.00 0.00 0.00 54 1008.9
20260902113033 73 190 11.0 19.0 0.00 0.00 0.00 53 1008.9
20260902111531 73 203 13.0 21.0 0.00 0.00 0.00 52 1008.9
20260902110044 74 184 14.0 22.0 0.00 0.00 0.00 52 1009.0
20260902104550 74 213 15.0 20.0 0.00 0.00 0.00 52 1009.0
20260902103045 74 174 12.0 20.0 0.00 0.00 0.00 51 1008.9
20260902101525 75 222 15.0 22.0 0.00 0.00 0.00 50 1009.1
20260902100025 75 202 15.0 19.0 0.00 0.00 0.00 51 1009.1
20260902094523 74 221 14.0 21.0 0.00 0.00 0.00 52 1009.1
20260902093021 74 200 12.0 17.0 0.00 0.00 0.00 52 1009.2
20260902091519 74 198 12.0 18.0 0.00 0.00 0.00 52 1009.3
20260902090025 74 195 11.0 16.0 0.00 0.00 0.00 52 1009.4
20260902084516 74 183 10.0 17.0 0.00 0.00 0.00 52 1009.5
20260902083014 74 185 11.0 19.0 0.00 0.00 0.00 52 1009.5
20260902081510 73 200 8.0 15.0 0.00 0.00 0.00 53 1009.6
20260902080010 73 166 10.0 15.0 0.00 0.00 0.00 52 1009.7
20260902074507 74 185 8.0 15.0 0.00 0.00 0.00 52 1009.7
20260902073008 74 360 9.0 15.0 0.00 0.00 0.00 52 1009.7
20260902071504 74 196 8.0 13.0 0.00 0.00 0.00 52 1009.6
20260902070007 75 182 9.0 14.0 0.00 0.00 0.00 50 1009.6
20260902064508 75 171 9.0 15.0 0.00 0.00 0.00 50 1009.7
20260902063003 75 194 9.0 14.0 0.00 0.00 0.00 51 1009.7
20260902061621 74 178 6.0 12.0 0.00 0.00 0.00 51 1009.6
20260902060109 75 180 7.0 13.0 0.00 0.00 0.00 50 1009.5
20260902054557 75 200 7.0 12.0 0.00 0.00 0.00 51 1009.6
20260902053102 74 189 7.0 12.0 0.00 0.00 0.00 51 1009.6
20260902051605 75 192 7.0 11.0 0.00 0.00 0.00 49 1009.6
20260902050049 77 173 5.0 9.0 0.00 0.00 0.00 47 1009.5
20260902044605 77 176 5.0 9.0 0.00 0.00 0.00 46 1009.5
20260902043049 78 142 4.0 8.0 0.00 0.00 0.00 45 1009.6
20260902041551 78 177 4.0 8.0 0.00 0.00 0.00 43 1009.5
20260902040047 79 180 4.0 10.0 0.00 0.00 0.00 42 1009.4
20260902034547 80 153 5.0 10.0 0.00 0.00 0.00 41 1009.2
20260902033046 81 167 4.0 8.0 0.00 0.00 0.00 40 1009.1
20260902031556 81 360 4.0 9.0 0.00 0.00 0.00 40 1009.0
20260902030046 82 166 4.0 7.0 0.00 0.00 0.00 39 1008.8
20260902024552 83 360 4.0 8.0 0.00 0.00 0.00 38 1008.7
20260902023046 83 152 3.0 9.0 0.00 0.00 0.00 37 1008.4
20260902021549 84 154 4.0 9.0 0.00 0.00 0.00 37 1008.1
20260902020045 84 153 5.0 9.0 0.00 0.00 0.00 37 1007.9
20260902014543 84 178 4.0 9.0 0.00 0.00 0.00 35 1007.9
20260902013045 85 153 5.0 9.0 0.00 0.00 0.00 34 1007.9
20260902011543 87 360 4.0 11.0 0.00 0.00 0.00 32 1007.6
20260902010045 87 183 6.0 9.0 0.00 0.00 0.00 30 1007.6
20260902004541 89 192 6.0 14.0 0.00 0.00 0.00 28 1007.3
20260902003041 90 360 10.0 17.0 0.00 0.00 0.00 29 1007.3
20260902001540 90 173 9.0 16.0 0.00 0.00 0.00 29 1007.3
20260902000040 91 360 8.0 18.0 0.00 0.00 0.00 28 1007.2
20260901234539 91 192 11.0 19.0 0.00 0.00 0.00 25 1007.1
20260901233038 92 163 6.0 16.0 0.00 0.00 0.00 27 1006.8
20260901231545 92 196 14.0 19.0 0.00 0.00 0.00 26 1006.9
20260901230043 92 360 9.0 23.0 0.00 0.00 0.00 26 1006.8
20260901224538 92 164 5.0 19.0 0.00 0.00 0.00 26 1006.9
20260901223035 91 188 10.0 19.0 0.00 0.00 0.00 25 1007.0
20260901221533 92 360 10.0 21.0 0.00 0.00 0.00 26 1007.2
20260901220032 92 200 13.0 21.0 0.00 0.00 0.00 26 1007.3
20260901214532 91 151 9.0 22.0 0.00 0.00 0.00 28 1007.5
20260901213030 92 360 11.0 21.0 0.00 0.00 0.00 28 1007.6
20260901211526 92 360 11.0 23.0 0.00 0.00 0.00 29 1007.9
20260901210023 92 196 11.0 18.0 0.00 0.00 0.00 30 1008.0
20260901204522 92 186 15.0 22.0 0.00 0.00 0.00 30 1008.3
20260901203018 91 159 11.0 20.0 0.00 0.00 0.00 29 1008.7
20260901201515 91 182 15.0 23.0 0.00 0.00 0.00 30 1009.0
20260901200017 90 135 9.0 18.0 0.00 0.00 0.00 32 1009.1
20260901194512 91 219 14.0 22.0 0.00 0.00 0.00 29 1009.3
20260901193009 90 190 13.0 21.0 0.00 0.00 0.00 31 1009.4
20260901191608 90 179 11.0 21.0 0.00 0.00 0.00 31 1009.7
20260901190007 90 202 11.0 24.0 0.00 0.00 0.00 32 1009.7
20260901184505 89 184 11.0 22.0 0.00 0.00 0.00 33 1010.0
20260901183008 89 196 14.0 21.0 0.00 0.00 0.00 33 1010.2
20260901181502 89 165 8.0 22.0 0.00 0.00 0.00 31 1010.3
20260901180059 89 155 11.0 19.0 0.00 0.00 0.00 31 1010.6
20260901174558 88 173 9.0 18.0 0.00 0.00 0.00 31 1010.7
20260901173136 88 226 10.0 17.0 0.00 0.00 0.00 33 1010.8
20260901171600 89 209 11.0 19.0 0.00 0.00 0.00 33 1010.8
20260901170100 87 195 6.0 21.0 0.00 0.00 0.00 34 1010.8
20260901164552 88 206 11.0 24.0 0.00 0.00 0.00 38 1010.8